Location: Bittelbronn
(48.4454°N, 8.5870°E)
Time: 15:57:43
(UTC+00:00)

Cosmos 724 - Pass Details

Date: 23 May 2024
Orbit: 864 x 930 km, 65.6° (Epoch: 16 June)

Event Time Altitude Azimuth Distance (km) Brightness Sun altitude
Exits shadow 00:12:02 31° 227° (SW) 1,507 5.1 -20.0°
Maximum altitude 00:15:00 76° 309° (NW) 906 4.3 -19.9°
Drops below altitude 10° 00:20:51 10° 35° (NE) 2,524 7.7 -19.7°
Sets 00:23:20 0° 37° (NE) 3,460 8.6 -19.6°
